Simultaneous Nadir Overpasses (SNOs) Predictions

Prediction of SNOs between GOES-17 and METOP-C Satellite Orbit:

Table of predicted SNOs for the next 14.0 days since TLE Epoch: 4/15/2023
Index Date Time (GOES-17) GOES-17 Lat,Lon METOP-C Lat,Lon Distance(km) Time Diff (sec)
1 04/16/2023 04:18:48 -0.00,-104.70 0.52,-102.50 252.28 80
2 04/17/2023 16:37:40 0.00,-104.75 0.54,-107.06 263.71 80
3 04/18/2023 16:19:42 0.00,-104.75 -0.61,-102.07 305.54 80
4 04/20/2023 04:38:41 -0.00,-104.71 -0.44,-106.66 222.07 80
5 04/21/2023 04:15:22 -0.00,-104.72 0.66,-101.67 347.03 80
6 04/22/2023 16:34:15 0.00,-104.76 0.32,-106.24 168.80 80
7 04/23/2023 16:16:15 0.01,-104.76 -0.78,-101.25 400.42 80
8 04/25/2023 04:35:15 -0.01,-104.72 -0.27,-105.83 127.23 80
9 04/26/2023 04:11:55 -0.01,-104.72 0.84,-100.84 441.84 80
10 04/27/2023 16:30:48 0.00,-104.76 0.12,-105.42 74.15 80
11 04/28/2023 16:12:49 0.00,-104.77 -0.99,-100.42 495.26 80
